Overview Statistics Trail Chart Weather Telemetry Raw packets
 

This is the latest recevied weather packets stored in our database for station/object SP6FIG-13. If no packets are shown the sender has not sent any weather packets the latest 10 day(s).

<< 1 2 3 4 >>
Time Temp. Humidity Pressure Rain* Wind** Luminosity Snow
1788615987 23.89° C 39% 1019.5 hPa - - - -
1788615687 23.89° C 39% 1019.1 hPa - - - -
1788615387 23.89° C 40% 1019.1 hPa - - - -
1788615087 23.89° C 40% 1019.5 hPa - - - -
1788614787 24.44° C 40% 1019 hPa - - - -
1788614487 24.44° C 38% 1019.1 hPa - - - -
1788614187 24.44° C 40% 1019.1 hPa - - - -
1788613887 23.89° C 43% 1019.5 hPa - - - -
1788613587 24.44° C 41% 1018.9 hPa - - - -
1788613287 23.89° C 38% 1019.1 hPa - - - -
1788612987 23.89° C 38% 1019.4 hPa - - - -
1788612687 23.89° C 42% 1019.1 hPa - - - -
1788612387 23.89° C 41% 1019.2 hPa - - - -
1788612087 23.89° C 40% 1019.3 hPa - - - -
1788611787 23.89° C 41% 1019.4 hPa - - - -
1788611487 23.89° C 40% 1019.1 hPa - - - -
1788611187 23.89° C 42% 1018.8 hPa - - - -
1788610887 23.33° C 38% 1019.7 hPa - - - -
1788610587 23.33° C 38% 1020.1 hPa - - - -
1788610287 23.89° C 38% 1019.5 hPa - - - -
1788609987 23.89° C 39% 1019.8 hPa - - - -
1788609687 23.89° C 38% 1020.2 hPa - - - -
1788609387 24.44° C 39% 1019 hPa - - - -
1788609087 23.89° C 39% 1019.7 hPa - - - -
1788608787 23.89° C 39% 1019.6 hPa - - - -

* Rain since midnight (hover to see other rain measurements)
** Current wind speed in m/s (hover to see current wind gust speed)